• In Kazakhstan
  • List of Countries
  • For 7 days
  • Water Temperature
  • Satellite Maps
  • Weather Map
  • News
  • Weather Widgets
  • user-avatar
    Login

    Hourly Weather Ischgl

    Today, 25 June, Tuesday

    Time Temperature Precipitation Wind Pressure Humidity
    00:00 +10°C° 0 mm 1 mps 580 mmHg 80%
    01:00 +9°C° 0 mm 2 mps 580 mmHg 79%
    02:00 +9°C° 0 mm 2 mps 580 mmHg 79%
    03:00 +8°C° 0 mm 2 mps 580 mmHg 80%
    04:00 +8°C° 0 mm 2 mps 579 mmHg 80%
    05:00 +11°C° 0 mm 1 mps 581 mmHg 73%
    06:00 +14°C° 0 mm 1 mps 582 mmHg 66%
    07:00 +16°C° 0 mm 1 mps 584 mmHg 58%
    08:00 +19°C° 0 mm 1 mps 585 mmHg 50%
    09:00 +21°C° 0 mm 1 mps 586 mmHg 41%
    10:00 +21°C° 0 mm 0 mps 587 mmHg 33%
    11:00 +24°C° 0 mm 1 mps 587 mmHg 30%
    12:00 +25°C° 0 mm 2 mps 587 mmHg 28%
    13:00 +25°C° 0 mm 2 mps 588 mmHg 26%
    14:00 +25°C° 0 mm 3 mps 587 mmHg 27%
    15:00 +25°C° 0 mm 3 mps 587 mmHg 29%
    16:00 +25°C° 0 mm 3 mps 587 mmHg 30%
    17:00 +23°C° 0 mm 2 mps 587 mmHg 39%
    18:00 +21°C° 0 mm 2 mps 586 mmHg 49%
    19:00 +20°C° 0 mm 1 mps 586 mmHg 58%
    20:00 +18°C° 0 mm 1 mps 585 mmHg 62%
    21:00 +15°C° 0 mm 1 mps 584 mmHg 67%
    22:00 +12°C° 0 mm 0 mps 583 mmHg 72%
    23:00 +11°C° 0 mm 0 mps 583 mmHg 70%

    Tomorrow, 26 June, Wednesday

    Time Temperature Precipitation Wind Pressure Humidity
    00:00 +11°C° 0 mm 0 mps 583 mmHg 68%
    01:00 +10°C° 0 mm 0 mps 583 mmHg 66%
    02:00 +10°C° 0 mm 0 mps 582 mmHg 63%
    03:00 +10°C° 0 mm 0 mps 582 mmHg 61%
    04:00 +9°C° 0 mm 0 mps 582 mmHg 59%
    05:00 +12°C° 0 mm 0 mps 584 mmHg 51%
    06:00 +15°C° 0 mm 0 mps 585 mmHg 44%
    07:00 +18°C° 0 mm 0 mps 587 mmHg 36%
    08:00 +21°C° 0 mm 1 mps 587 mmHg 32%
    09:00 +23°C° 0 mm 1 mps 588 mmHg 27%
    10:00 +24°C° 0 mm 1 mps 589 mmHg 23%
    11:00 +25°C° 0 mm 2 mps 589 mmHg 23%
    12:00 +25°C° 0 mm 2 mps 589 mmHg 22%
    13:00 +26°C° 0 mm 2 mps 589 mmHg 22%
    14:00 +26°C° 0 mm 2 mps 589 mmHg 23%
    15:00 +26°C° 0 mm 3 mps 589 mmHg 25%
    16:00 +25°C° 0 mm 3 mps 588 mmHg 26%
    17:00 +24°C° 0 mm 2 mps 588 mmHg 36%
    18:00 +23°C° 0 mm 2 mps 587 mmHg 45%
    19:00 +20°C° 0 mm 2 mps 587 mmHg 54%
    20:00 +19°C° 0 mm 1 mps 586 mmHg 61%
    21:00 +16°C° 0 mm 1 mps 585 mmHg 68%
    22:00 +12°C° 0 mm 0 mps 584 mmHg 76%
    23:00 +12°C° 0 mm 0 mps 583 mmHg 76%

    Day after tomorrow, 27 June, Thursday

    Time Temperature Precipitation Wind Pressure Humidity
    00:00 +12°C° 0 mm 1 mps 583 mmHg 76%
    01:00 +12°C° 0 mm 1 mps 583 mmHg 76%
    02:00 +12°C° 0 mm 1 mps 582 mmHg 75%
    03:00 +11°C° 0 mm 1 mps 582 mmHg 73%
    04:00 +11°C° 0 mm 1 mps 582 mmHg 71%
    05:00 +13°C° 0 mm 1 mps 583 mmHg 63%
    06:00 +16°C° 0 mm 1 mps 584 mmHg 54%
    07:00 +19°C° 0 mm 1 mps 585 mmHg 46%
    08:00 +21°C° 0 mm 1 mps 586 mmHg 40%
    09:00 +21°C° 0 mm 2 mps 586 mmHg 34%
    10:00 +23°C° 0 mm 2 mps 587 mmHg 28%
    11:00 +24°C° 0 mm 2 mps 587 mmHg 29%
    12:00 +24°C° 0 mm 3 mps 587 mmHg 29%
    13:00 +24°C° 0 mm 3 mps 587 mmHg 30%
    14:00 +24°C° 0 mm 3 mps 587 mmHg 32%
    15:00 +23°C° 0 mm 4 mps 586 mmHg 35%
    16:00 +22°C° 0 mm 4 mps 586 mmHg 37%
    17:00 +21°C° 0 mm 3 mps 585 mmHg 44%
    18:00 +20°C° 0 mm 3 mps 585 mmHg 51%
    19:00 +19°C° 0 mm 2 mps 584 mmHg 58%
    20:00 +16°C° 0 mm 2 mps 583 mmHg 66%
    21:00 +14°C° 0 mm 1 mps 582 mmHg 73%
    22:00 +12°C° 0 mm 1 mps 581 mmHg 81%
    23:00 +12°C° 0 mm 1 mps 581 mmHg 81%

    28 June, Friday

    Time Temperature Precipitation Wind Pressure Humidity
    00:00 +11°C° 0 mm 1 mps 581 mmHg 81%
    01:00 +10°C° 0 mm 1 mps 581 mmHg 81%
    02:00 +10°C° 0 mm 1 mps 580 mmHg 81%
    03:00 +10°C° 0 mm 1 mps 580 mmHg 82%
    04:00 +10°C° 0 mm 1 mps 580 mmHg 83%
    05:00 +11°C° 0 mm 1 mps 580 mmHg 81%
    06:00 +13°C° 0 mm 1 mps 581 mmHg 80%
    07:00 +15°C° 0 mm 1 mps 582 mmHg 79%
    08:00 +16°C° 0 mm 2 mps 583 mmHg 64%
    09:00 +18°C° 0 mm 2 mps 583 mmHg 50%
    10:00 +19°C° 0 mm 2 mps 584 mmHg 36%
    11:00 +20°C° 0 mm 3 mps 584 mmHg 34%
    12:00 +20°C° 0 mm 3 mps 584 mmHg 32%
    13:00 +21°C° 0 mm 3 mps 584 mmHg 30%
    14:00 +21°C° 0 mm 3 mps 584 mmHg 31%
    15:00 +20°C° 0 mm 3 mps 584 mmHg 31%
    16:00 +20°C° 0 mm 3 mps 584 mmHg 32%
    17:00 +19°C° 0 mm 3 mps 583 mmHg 39%
    18:00 +18°C° 0 mm 2 mps 583 mmHg 46%
    19:00 +16°C° 0 mm 2 mps 582 mmHg 54%
    20:00 +14°C° 0 mm 1 mps 581 mmHg 62%
    21:00 +12°C° 0 mm 1 mps 580 mmHg 71%
    22:00 +8°C° 0 mm 0 mps 579 mmHg 80%
    23:00 +8°C° 0 mm 0 mps 579 mmHg 78%

    29 June, Saturday

    Time Temperature Precipitation Wind Pressure Humidity
    00:00 +7°C° 0 mm 0 mps 579 mmHg 77%
    01:00 +7°C° 0 mm 0 mps 578 mmHg 75%
    02:00 +6°C° 0 mm 0 mps 578 mmHg 72%
    03:00 +6°C° 0 mm 0 mps 577 mmHg 69%
    04:00 +6°C° 0 mm 0 mps 577 mmHg 66%
    05:00 +8°C° 0 mm 0 mps 579 mmHg 57%
    06:00 +11°C° 0 mm 0 mps 580 mmHg 49%
    07:00 +13°C° 0 mm 0 mps 581 mmHg 40%
    08:00 +15°C° 0 mm 0 mps 582 mmHg 36%
    09:00 +19°C° 0 mm 1 mps 583 mmHg 32%
    10:00 +21°C° 0 mm 1 mps 584 mmHg 28%
    11:00 +22°C° 0 mm 1 mps 584 mmHg 26%
    12:00 +23°C° 0 mm 1 mps 584 mmHg 25%
    13:00 +23°C° 0 mm 1 mps 584 mmHg 24%
    14:00 +23°C° 0 mm 1 mps 584 mmHg 25%
    15:00 +23°C° 0 mm 2 mps 584 mmHg 26%
    16:00 +23°C° 0 mm 2 mps 584 mmHg 27%
    17:00 +21°C° 0 mm 2 mps 584 mmHg 38%
    18:00 +21°C° 0 mm 1 mps 583 mmHg 49%
    19:00 +19°C° 0 mm 1 mps 582 mmHg 59%
    20:00 +16°C° 0 mm 1 mps 581 mmHg 68%
    21:00 +13°C° 0 mm 1 mps 580 mmHg 77%
    22:00 +10°C° 0 mm 0 mps 579 mmHg 86%
    23:00 +10°C° 0 mm 0 mps 579 mmHg 86%

    30 June, Sunday

    Time Temperature Precipitation Wind Pressure Humidity
    00:00 +10°C° 0 mm 1 mps 579 mmHg 86%
    01:00 +10°C° 0 mm 1 mps 579 mmHg 86%
    02:00 +10°C° 0 mm 1 mps 579 mmHg 86%
    03:00 +9°C° 0 mm 1 mps 578 mmHg 86%
    04:00 +9°C° 0 mm 1 mps 578 mmHg 86%
    05:00 +11°C° 0 mm 1 mps 579 mmHg 77%
    06:00 +13°C° 0 mm 1 mps 580 mmHg 69%
    07:00 +16°C° 0 mm 1 mps 582 mmHg 60%
    08:00 +18°C° 0 mm 1 mps 582 mmHg 51%
    09:00 +20°C° 0 mm 1 mps 583 mmHg 41%
    10:00 +22°C° 0 mm 1 mps 584 mmHg 32%
    11:00 +23°C° 0 mm 2 mps 584 mmHg 30%
    12:00 +23°C° 0 mm 2 mps 585 mmHg 28%
    13:00 +24°C° 0 mm 2 mps 585 mmHg 26%
    14:00 +24°C° 0 mm 2 mps 585 mmHg 26%
    15:00 +24°C° 0 mm 2 mps 584 mmHg 27%
    16:00 +24°C° 0 mm 3 mps 584 mmHg 27%
    17:00 +21°C° 0 mm 2 mps 584 mmHg 34%
    18:00 +20°C° 0 mm 2 mps 583 mmHg 41%
    19:00 +20°C° 0 mm 1 mps 583 mmHg 49%
    20:00 +16°C° 0 mm 1 mps 582 mmHg 54%
    21:00 +14°C° 0 mm 1 mps 581 mmHg 60%
    22:00 +11°C° 0 mm 0 mps 580 mmHg 66%
    23:00 +11°C° 0 mm 1 mps 580 mmHg 65%
    Show more